Location: Newark
(48.2308°N, 120.8549°W)
Time: 04:33:40
(UTC+00:00)

FENGYUN 1C DEB - Pass Details

Date: 07 February 2022
Orbit: 822 x 948 km, 99.2° (Epoch: 25 May)

Event Time Altitude Azimuth Distance (km) Brightness Sun altitude
Rises 03:06:02 0° 159° (SSE) 3,609 ? -19.4°
Reaches altitude 10° 03:08:29 10° 158° (SSE) 2,662 ? -19.8°
Maximum altitude 03:14:27 81° 72° (ENE) 952 ? -20.8°
Drops below altitude 10° 03:20:20 10° 346° (NNW) 2,619 ? -21.8°
Sets 03:22:44 0° 346° (NNW) 3,547 ? -22.2°
